Location: Unspecified
(0.0000°N, 0.0000°E)
Time: 18:41:53
(UTC+00:00)

Polar BEAR P87-1 - Visible Passes

Search period start: 22 May 2025 00:00
Search period end: 01 June 2025 00:00
Orbit: 951 x 1010 km, 89.6° (Epoch: 22 May)

Date Brightness Start Highest point End Pass type
(mag) Time Alt. Az. Time Alt. Az. Time Alt. Az.
22 May 9.8 21:04:02 14° NNW 21:04:02 14° NNW 21:04:53 10° NNW visible
23 May 10.1 21:30:25 11° NW 21:30:25 11° NW 21:30:45 10° NW visible
24 May 9.2 20:12:03 19° NNE 20:12:03 19° NNE 20:13:45 10° NNE visible
25 May 9.1 20:38:25 26° N 20:38:25 26° N 20:40:48 10° N visible
26 May 9.4 19:20:00 11° ENE 19:20:00 11° ENE 19:20:25 10° NE visible
26 May 9.4 21:04:44 22° NW 21:04:44 22° NW 21:07:02 10° NNW visible
27 May 8.7 19:46:18 24° NE 19:46:18 24° NE 19:49:12 10° NNE visible
27 May 10.0 21:31:02 13° WNW 21:31:02 13° WNW 21:32:07 10° NW visible
28 May 8.1 20:12:35 43° NNE 20:12:35 43° NNE 20:16:36 10° N visible
29 May 8.4 20:38:51 42° NW 20:38:51 42° NW 20:43:09 10° NNW visible
30 May 8.5 19:20:20 24° ENE 19:20:20 24° ENE 19:24:28 10° NNE visible
30 May 9.4 21:05:04 23° WNW 21:05:04 23° WNW 21:08:47 10° NW visible
31 May 7.5 19:46:32 53° E 19:46:32 53° E 19:52:16 10° N visible
31 May 10.2 21:31:15 10° W 21:31:15 10° W 21:31:38 10° W visible
